CSL-04 Rocket - Orbit

View from above orbital plane
View from above orbital plane
View from above satellite
View from above satellite

Ground track
Ground track

The orbit data is extracted from the following two-line orbital elements,

1 25732U 99025C   13169.00579693  .00000009  00000-0  26448-4 0  2836
2 25732 098.8470 141.9955 0036395 293.7764 136.5906 14.17381300729764
Epoch (UTC): 18 June 2013 00:08:20
Eccentricity: 0.0036395
inclination: 98.8470°
perigee height: 808 km
apogee height: 860 km
right ascension of ascending node: 141.9955°
argument of perigee: 293.7764°
revolutions per day: 14.17381300
mean anomaly at epoch: 136.5906°
orbit number at epoch: 72976

The dashed part of the orbit path shows where the satellite is in the earth's shadow,  

Developed and maintained by Chris Peat, Heavens-Above GmbH. Please read the updated FAQ before sending e-mail. Imprint. DLR